Regional Weather Roundup
Issued by NWS

Home | Current Version | Previous Version | Graphics & Text | Print | Product List | Glossary On
Versions: 1 2 3 4 5 6 7 8 9 10 11 12 13 14 15 16 17 18 19 20 21 22 23 24 25 26 27 28 29 30 31 32 33 34 35 36 37 38 39 40 41 42 43 44 45 46 47 48 49 50
000
ASUS43 KLOT 041606
RWRIL

ILLINOIS REGIONAL WEATHER ROUNDUP
NATIONAL WEATHER SERVICE CHICAGO/ROMEOVILLE IL
1000 AM CST WED MAR 04 2015

NOTE: "FAIR" INDICATES FEW OR NO CLOUDS BELOW 12,000 FEET WITH NO
SIGNIFICANT WEATHER AND/OR OBSTRUCTIONS TO VISIBILITY.

* THESE STATIONS ARE NOT UNDER NWS QUALITY CONTROL. THEY ALSO MAY NOT
  REPORT WEATHER SUCH AS PRECIPITATION OR FOG.

ILZ001-002-007-009-015-016-024-041700-
NORTHWEST ILLINOIS

CITY           SKY/WX    TMP DP  RH WIND       PRES   REMARKS
MOLINE         MOSUNNY   13   1  59 NW16      30.24R WCI  -3
STERLING*      PTSUNNY   16   3  57 NW14      30.18R WCI   1
$$

ILZ003-004-008-010-011-017-018-041700-
NORTH CENTRAL ILLINOIS

CITY           SKY/WX    TMP DP  RH WIND       PRES   REMARKS
ROCKFORD       PTSUNNY   13   2  61 NW15      30.17R WCI  -3
FREEPORT*      SUNNY     11   0  62 NW10G21   30.18R WCI  -3
$$

ILZ005-006-012>014-019>023-041700-
NORTHEAST ILLINOIS

CITY           SKY/WX    TMP DP  RH WIND       PRES   REMARKS
CHICAGO-OHARE  CLOUDY    18   8  65 NW13      30.10R WCI   5
CHICAGO-MIDWAY CLOUDY    21  10  62 NW13      30.10R WCI   9
AURORA         CLOUDY    17   7  64 NW16      30.13R WCI   2
LANSING*       CLOUDY    22  12  66 NW8       30.10R WCI  12
WAUKEGAN       PTSUNNY   17   1  49 NW12G18   30.09R WCI   4
DUPAGE AIRPORT PTSUNNY   17   6  62 NW14      30.10R WCI   3
WHEELING       PTSUNNY   18   5  57 NW14      30.12R WCI   4
NORTHERLY ISL    N/A     22  10  60 NW7         N/A  WCI  14
$$

LMZ740>746-041700-
SOUTHERN LAKE MICHIGAN

STATION/POSITION SKY/WX   TEMP    WIND        PRES    VSBY  WAVE
                          AIR SEA DIR/SP/G                  HT/PER
                          (F)     (DEG/KT/KT) (MB)    (MI)  (FT/S)
WAUKEGAN HARBOR            17                   N/A
HARRISON CRIB              19     310/ 11/ 15   N/A
BURNHAM HARBOR             22     280/  9/ 13   N/A
CALUMET HARBOR             22     270/  7/ 12 1017.4R
MICHIGAN CITY              23     300/ 14/ 17   N/A
$$

ILZ025>027-034>036-040-047-049-050-058-095>099-041700-
WEST-CENTRAL ILLINOIS

CITY           SKY/WX    TMP DP  RH WIND       PRES   REMARKS
QUINCY         CLOUDY    17   5  59 NW15      30.25R WCI   2
MACOMB*        CLOUDY    15   7  71 NW15      30.27R WCI   0
$$

ILZ028>032-037-038-041>044-048-051>054-059>061-041700-
CENTRAL ILLINOIS

CITY           SKY/WX    TMP DP  RH WIND       PRES   REMARKS
DECATUR        CLOUDY    17   7  64 NW14      30.17R WCI   3
PEORIA         CLOUDY    16   0  49 NW12G22   30.21R WCI   3
SPRINGFIELD    CLOUDY    17   5  59 NW16      30.21R WCI   2
TAYLORVILLE    NOT AVBL
$$

ILZ033-039-045-046-055>057-062-063-041700-
EAST-CENTRAL ILLINOIS

CITY           SKY/WX    TMP DP  RH WIND       PRES   REMARKS
CHAMPAIGN      CLOUDY    16   9  74 NW16      30.13R WCI   1
MATTOON        CLOUDY    18  11  74 NW17      30.14R WCI   3
$$

ILZ079-100>102-041700-
SOUTHWEST ILLINOIS

CITY           SKY/WX    TMP DP  RH WIND       PRES   REMARKS
CAHOKIA*       CLOUDY    22  10  60 NW15      30.23R WCI   9
$$

ILZ064>066-069>071-074>076-080>082-084>086-088>090-092>094-041700-
SOUTH-CENTRAL ILLINOIS

CITY           SKY/WX    TMP DP  RH WIND       PRES   REMARKS
CARBONDALE     FRZ RAIN  27  22  81 NW17G25   30.15R WCI  14
MARION         FRZ RAIN  30  27  86 N12       30.14R WCI  21
MT. VERNON     CLOUDY    27  16  63 N8        30.15R WCI  18
$$

ILZ067-068-072-073-078-083-087-091-041700-
SOUTHEAST ILLINOIS

CITY           SKY/WX    TMP DP  RH WIND       PRES   REMARKS
LAWRENCEVILLE  CLOUDY    29  24  82 N15       30.11R WCI  18
$$

ABBREVIATIONS USED IN REMARKS
   TC - TEMPERATURE IN CELSIUS
  WCI - WIND CHILL INDEX
   HX - HEAT INDEX
  VSB - VISIBILITY
$$



USA.gov is the U.S. government's official web portal to all federal, state and local government web resources and services.